| time (UTC) | temp C | wind direction | speed KPH | gust KPH | rain 1hr cm | rain 24hr cm | rain mn cm | humidity % | barometer mb |
| 20260902031546 | 30 | 150 | 0.0 | 0.0 | 0.00 | 0.00 | 0.00 | 60 | 1014.6 |
| 20260902030043 | 30 | 329 | 0.0 | 0.0 | 0.00 | 0.00 | 0.00 | 58 | 1014.6 |
| 20260902024544 | 30 | 138 | 0.0 | 0.0 | 0.00 | 0.00 | 0.00 | 57 | 1014.5 |
| 20260902023052 | 31 | 169 | 0.0 | 0.0 | 0.00 | 0.00 | 0.00 | 56 | 1014.3 |
| 20260902021542 | 31 | 153 | 0.0 | 1.6 | 0.00 | 0.00 | 0.00 | 56 | 1014.2 |
| 20260902020042 | 31 | 146 | 0.0 | 0.0 | 0.00 | 0.00 | 0.00 | 56 | 1014.0 |
| 20260902014541 | 31 | 123 | 0.0 | 0.0 | 0.00 | 0.00 | 0.00 | 56 | 1013.9 |
| 20260902013051 | 32 | 184 | 0.0 | 3.2 | 0.00 | 0.00 | 0.00 | 55 | 1013.7 |
| 20260902011540 | 32 | 146 | 0.0 | 1.6 | 0.00 | 0.00 | 0.00 | 54 | 1013.7 |
| 20260902010039 | 32 | 192 | 0.0 | 1.6 | 0.00 | 0.00 | 0.00 | 52 | 1013.5 |
| 20260902004539 | 33 | 148 | 0.0 | 1.6 | 0.00 | 0.00 | 0.00 | 50 | 1013.4 |
| 20260902003041 | 33 | 159 | 0.0 | 11.3 | 0.00 | 0.00 | 0.00 | 49 | 1013.4 |
| 20260902001553 | 34 | 132 | 0.0 | 0.0 | 0.00 | 0.00 | 0.00 | 48 | 1013.5 |
| 20260902000040 | 34 | 150 | 0.0 | 12.9 | 0.00 | 0.00 | 0.00 | 47 | 1013.5 |
| 20260901234536 | 35 | 187 | 0.0 | 6.4 | 0.00 | 0.00 | 0.00 | 47 | 1013.6 |
| 20260901233036 | 35 | 142 | 0.0 | 11.3 | 0.00 | 0.00 | 0.00 | 46 | 1013.6 |
| 20260901231535 | 35 | 135 | 0.0 | 11.3 | 0.00 | 0.00 | 0.00 | 45 | 1013.6 |
| 20260901230036 | 35 | 140 | 0.0 | 0.0 | 0.00 | 0.00 | 0.00 | 43 | 1013.7 |
| 20260901224535 | 36 | 169 | 0.0 | 0.0 | 0.00 | 0.00 | 0.00 | 41 | 1013.6 |
| 20260901223036 | 36 | 282 | 0.0 | 0.0 | 0.00 | 0.00 | 0.00 | 41 | 1013.6 |
| 20260901221542 | 37 | 181 | 0.0 | 0.0 | 0.00 | 0.00 | 0.00 | 40 | 1013.6 |
| 20260901220032 | 37 | 158 | 0.0 | 1.6 | 0.00 | 0.00 | 0.00 | 40 | 1013.6 |
| 20260901214532 | 37 | 207 | 0.0 | 4.8 | 0.00 | 0.00 | 0.00 | 40 | 1013.5 |
| 20260901213032 | 37 | 207 | 0.0 | 3.2 | 0.00 | 0.00 | 0.00 | 38 | 1013.5 |
| 20260901211530 | 37 | 229 | 0.0 | 11.3 | 0.00 | 0.00 | 0.00 | 40 | 1013.6 |
| 20260901210028 | 37 | 265 | 0.0 | 1.6 | 0.00 | 0.00 | 0.00 | 39 | 1013.7 |
| 20260901204524 | 37 | 217 | 0.0 | 6.4 | 0.00 | 0.00 | 0.00 | 38 | 1014.0 |
| 20260901203026 | 37 | 151 | 0.0 | 1.6 | 0.00 | 0.00 | 0.00 | 39 | 1014.2 |
| 20260901201522 | 37 | 130 | 0.0 | 3.2 | 0.00 | 0.00 | 0.00 | 39 | 1014.3 |
| 20260901200019 | 37 | 216 | 0.0 | 1.6 | 0.00 | 0.00 | 0.00 | 40 | 1014.5 |
| 20260901194518 | 36 | 231 | 0.0 | 8.0 | 0.00 | 0.00 | 0.00 | 39 | 1014.6 |
| 20260901193015 | 36 | 19 | 0.0 | 0.0 | 0.00 | 0.00 | 0.00 | 38 | 1014.8 |
| 20260901191524 | 36 | 232 | 0.0 | 3.2 | 0.00 | 0.00 | 0.00 | 41 | 1014.9 |
| 20260901190010 | 36 | 211 | 0.0 | 11.3 | 0.00 | 0.00 | 0.00 | 44 | 1015.1 |
| 20260901184509 | 35 | 218 | 0.0 | 1.6 | 0.00 | 0.00 | 0.00 | 46 | 1015.2 |
| 20260901183004 | 35 | 309 | 0.0 | 1.6 | 0.00 | 0.00 | 0.00 | 49 | 1015.3 |
| 20260901181503 | 35 | 252 | 0.0 | 0.0 | 0.00 | 0.00 | 0.00 | 50 | 1015.5 |
| 20260901180100 | 35 | 127 | 0.0 | 4.8 | 0.00 | 0.00 | 0.00 | 48 | 1015.7 |
| 20260901174557 | 35 | 267 | 0.0 | 1.6 | 0.00 | 0.00 | 0.00 | 51 | 1015.9 |
| 20260901173101 | 34 | 260 | 0.0 | 1.6 | 0.00 | 0.00 | 0.00 | 50 | 1016.0 |
| 20260901171600 | 33 | 202 | 0.0 | 3.2 | 0.00 | 0.00 | 0.00 | 54 | 1016.1 |
| 20260901170047 | 33 | 273 | 0.0 | 8.0 | 0.00 | 0.00 | 0.00 | 53 | 1016.3 |
| 20260901164546 | 33 | 199 | 0.0 | 0.0 | 0.00 | 0.00 | 0.00 | 55 | 1016.5 |
| 20260901163042 | 32 | 271 | 0.0 | 16.1 | 0.00 | 0.00 | 0.00 | 55 | 1016.7 |
| 20260901161552 | 32 | 202 | 0.0 | 11.3 | 0.00 | 0.00 | 0.00 | 57 | 1016.7 |
| 20260901160038 | 32 | 205 | 0.0 | 8.0 | 0.00 | 0.00 | 0.00 | 58 | 1016.8 |
| 20260901154537 | 31 | 212 | 0.0 | 4.8 | 0.00 | 0.00 | 0.00 | 59 | 1016.8 |
| 20260901153029 | 31 | 241 | 0.0 | 3.2 | 0.00 | 0.00 | 0.00 | 61 | 1016.9 |
| 20260901151528 | 30 | 225 | 0.0 | 1.6 | 0.00 | 0.00 | 0.00 | 62 | 1016.9 |
| 20260901150035 | 30 | 225 | 0.0 | 4.8 | 0.00 | 0.00 | 0.00 | 63 | 1016.8 |
| 20260901144529 | 30 | 260 | 0.0 | 6.4 | 0.00 | 0.00 | 0.00 | 64 | 1016.7 |
| 20260901143018 | 29 | 219 | 0.0 | 0.0 | 0.00 | 0.00 | 0.00 | 66 | 1016.8 |
| 20260901141515 | 28 | 227 | 0.0 | 1.6 | 0.00 | 0.00 | 0.00 | 67 | 1016.8 |
| 20260901140010 | 28 | 199 | 0.0 | 11.3 | 0.00 | 0.00 | 0.00 | 68 | 1016.8 |
| 20260901134508 | 27 | 225 | 0.0 | 0.0 | 0.00 | 0.00 | 0.00 | 70 | 1016.9 |
| 20260901133007 | 27 | 244 | 0.0 | 0.0 | 0.00 | 0.00 | 0.00 | 71 | 1016.9 |
| 20260901131507 | 26 | 244 | 0.0 | 0.0 | 0.00 | 0.00 | 0.00 | 72 | 1016.9 |
| 20260901130006 | 26 | 244 | 0.0 | 1.6 | 0.00 | 0.00 | 0.00 | 73 | 1016.8 |
| 20260901124511 | 25 | 243 | 0.0 | 0.0 | 0.00 | 0.00 | 0.00 | 75 | 1016.7 |
| 20260901123002 | 25 | 243 | 0.0 | 1.6 | 0.00 | 0.00 | 0.00 | 76 | 1016.5 |
| 20260901121501 | 25 | 243 | 0.0 | 0.0 | 0.00 | 0.00 | 0.00 | 77 | 1016.3 |
| 20260901120059 | 25 | 243 | 0.0 | 0.0 | 0.00 | 0.00 | 0.00 | 76 | 1016.3 |
| 20260901114638 | 25 | 243 | 0.0 | 0.0 | 0.00 | 0.00 | 0.00 | 76 | 1016.1 |
| 20260901113057 | 25 | 243 | 0.0 | 0.0 | 0.00 | 0.00 | 0.00 | 75 | 1015.9 |
| 20260901111555 | 25 | 243 | 0.0 | 0.0 | 0.00 | 0.00 | 0.00 | 75 | 1015.9 |
| 20260901110054 | 25 | 243 | 0.0 | 0.0 | 0.00 | 0.00 | 0.00 | 74 | 1015.8 |
| 20260901104551 | 25 | 243 | 0.0 | 0.0 | 0.00 | 0.00 | 0.00 | 73 | 1015.8 |
| 20260901103050 | 25 | 243 | 0.0 | 0.0 | 0.00 | 0.00 | 0.00 | 73 | 1015.7 |
| 20260901101550 | 26 | 243 | 0.0 | 1.6 | 0.00 | 0.00 | 0.00 | 72 | 1015.6 |
| 20260901100049 | 26 | 243 | 0.0 | 0.0 | 0.00 | 0.00 | 0.00 | 72 | 1015.5 |
| 20260901094545 | 26 | 243 | 0.0 | 1.6 | 0.00 | 0.00 | 0.00 | 72 | 1015.5 |
| 20260901093043 | 26 | 243 | 0.0 | 0.0 | 0.00 | 0.00 | 0.00 | 71 | 1015.4 |
| 20260901091543 | 26 | 243 | 0.0 | 0.0 | 0.00 | 0.00 | 0.00 | 71 | 1015.4 |
| 20260901090046 | 26 | 243 | 0.0 | 0.0 | 0.00 | 0.00 | 0.00 | 71 | 1015.3 |
| 20260901084543 | 26 | 243 | 0.0 | 0.0 | 0.00 | 0.00 | 0.00 | 71 | 1015.0 |
| 20260901083037 | 26 | 208 | 0.0 | 0.0 | 0.00 | 0.00 | 0.00 | 71 | 1014.9 |
| 20260901081535 | 26 | 208 | 0.0 | 0.0 | 0.00 | 0.00 | 0.00 | 70 | 1014.9 |
| 20260901080034 | 27 | 208 | 0.0 | 0.0 | 0.00 | 0.00 | 0.00 | 70 | 1014.9 |
| 20260901074532 | 27 | 185 | 0.0 | 0.0 | 0.00 | 0.00 | 0.00 | 69 | 1015.0 |
| 20260901073032 | 27 | 185 | 0.0 | 0.0 | 0.00 | 0.00 | 0.00 | 69 | 1014.9 |
| 20260901071531 | 27 | 185 | 0.0 | 0.0 | 0.00 | 0.00 | 0.00 | 69 | 1014.8 |
| 20260901070029 | 27 | 185 | 0.0 | 0.0 | 0.00 | 0.00 | 0.00 | 69 | 1014.8 |
| 20260901064531 | 27 | 185 | 0.0 | 0.0 | 0.00 | 0.00 | 0.00 | 69 | 1014.9 |
| 20260901063029 | 27 | 185 | 0.0 | 0.0 | 0.00 | 0.00 | 0.00 | 69 | 1015.0 |
| 20260901061529 | 27 | 185 | 0.0 | 0.0 | 0.00 | 0.00 | 0.00 | 69 | 1014.9 |
| 20260901060025 | 27 | 185 | 0.0 | 0.0 | 0.00 | 0.00 | 0.00 | 70 | 1014.9 |
| 20260901054524 | 27 | 185 | 0.0 | 0.0 | 0.00 | 0.00 | 0.00 | 69 | 1014.9 |
| 20260901053022 | 27 | 185 | 0.0 | 0.0 | 0.00 | 0.00 | 0.00 | 68 | 1014.9 |
| 20260901051521 | 27 | 185 | 0.0 | 3.2 | 0.00 | 0.00 | 0.00 | 68 | 1014.8 |
| 20260901050018 | 28 | 185 | 0.0 | 0.0 | 0.00 | 0.00 | 0.00 | 67 | 1014.8 |
| 20260901044535 | 28 | 184 | 0.0 | 0.0 | 0.00 | 0.00 | 0.00 | 67 | 1014.8 |
| 20260901043016 | 28 | 215 | 0.0 | 3.2 | 0.00 | 0.00 | 0.00 | 66 | 1014.9 |
| 20260901041525 | 28 | 198 | 0.0 | 3.2 | 0.00 | 0.00 | 0.00 | 65 | 1014.9 |
| 20260901040016 | 28 | 211 | 0.0 | 3.2 | 0.00 | 0.00 | 0.00 | 64 | 1014.9 |
| 20260901034524 | 28 | 209 | 0.0 | 0.0 | 0.00 | 0.00 | 0.00 | 63 | 1015.0 |
| 20260901033037 | 29 | 231 | 0.0 | 0.0 | 0.00 | 0.00 | 0.00 | 63 | 1014.9 |